Greenville, WI

5:20 PM CDT on August 31, 2016 (GMT -0500)
Outagamie County Regional

Weather History for KATW - December, 2012

Change the Weather History Date:

Saturday, December 22, 2012

  Actual Average Record
Temperature  
Mean Temperature 14 °F -  
Max Temperature 21 °F 27 °F 46 °F (1957)
Min Temperature 6 °F 11 °F -20 °F (1983)
Degree Days  
Heating Degree Days 52    
Moisture  
Dew Point 10 °F    
Average Humidity 85    
Maximum Humidity 100    
Minimum Humidity 68    
Precipitation  
Precipitation 0.00 in - - ()
Sea Level Pressure  
Sea Level Pressure 30.05 in    
Wind  
Wind Speed 7 mph (WSW)    
Max Wind Speed 10 mph    
Max Gust Speed -    
Visibility 10 miles    
Events      
Averages and records for this station are not official NWS values.
T = Trace of Precipitation, MM = Missing Value Source: NWS Daily Summary

Daily Weather History Graph

Daily Weather History Graph

Search for Another Location

Airport or City:

Trip Planner

Search our weather history database for the weather conditions in past years. The results will help you decide how hot, cold, wet, or windy it might be!

Date:

Astronomy

Dec. 22, 2012 Rise Set
Actual Time 7:27 AM CST 4:18 PM CST
Civil Twilight 6:53 AM CST 4:52 PM CST
Nautical Twilight 6:17 AM CST 5:28 PM CST
Astronomical Twilight 5:41 AM CST 6:04 PM CST
Moon 12:42 PM CST (12/22) 2:05 AM CST (12/22)
Length of Visible Light 9h 58m
Length of Day
8h 51m
Waxing Gibbous, 74% of the Moon is Illuminated
Dec 22
Waxing Gibbous
Dec 28
Full
Jan 4
Last Quarter
Jan 11
New
Jan 18
First Quarter

Hourly Weather History & Observations

Time (CST) Temp. Windchill Dew Point Humidity Pressure Visibility Wind Dir Wind Speed Gust Speed Precip Events Conditions
12:15 AM 14.0 °F 3.9 °F 12.2 °F 93% 30.13 in 10.0 mi West 6.9 mph - N/A   Clear
12:35 AM 14.0 °F 3.9 °F 10.4 °F 86% 30.12 in 10.0 mi West 6.9 mph - N/A   Clear
12:55 AM 14.0 °F 6.5 °F 10.4 °F 86% 30.12 in 10.0 mi West 4.6 mph - N/A   Clear
1:15 AM 12.2 °F 1.7 °F 10.4 °F 92% 30.12 in 10.0 mi West 6.9 mph - N/A   Clear
1:35 AM 12.2 °F 0.7 °F 10.4 °F 92% 30.13 in 10.0 mi West 8.1 mph - N/A   Clear
1:55 AM 10.4 °F -0.4 °F 8.6 °F 92% 30.13 in 10.0 mi West 6.9 mph - N/A   Clear
2:15 AM 10.4 °F -1.5 °F 8.6 °F 92% 30.12 in 10.0 mi West 8.1 mph - N/A   Clear
2:35 AM 10.4 °F -2.4 °F 8.6 °F 92% 30.13 in 10.0 mi West 9.2 mph - N/A   Clear
2:55 AM 10.4 °F -1.5 °F 8.6 °F 92% 30.13 in 10.0 mi West 8.1 mph - N/A   Clear
3:15 AM 8.6 °F -5.5 °F 6.8 °F 92% 30.12 in 10.0 mi West 10.4 mph - N/A   Clear
3:35 AM 10.4 °F -2.4 °F 8.6 °F 92% 30.12 in 10.0 mi West 9.2 mph - N/A   Clear
3:55 AM 8.6 °F -4.7 °F 8.6 °F 100% 30.12 in 10.0 mi West 9.2 mph - N/A   Clear
5:15 AM 8.6 °F -3.7 °F 6.8 °F 92% 30.13 in 10.0 mi West 8.1 mph - N/A   Scattered Clouds
5:45 AM 8.6 °F -4.7 °F 5.0 °F 85% 30.14 in 10.0 mi West 9.2 mph - N/A   Scattered Clouds
6:45 AM 8.6 °F -3.7 °F 5.0 °F 85% 30.13 in 10.0 mi WSW 8.1 mph - N/A   Scattered Clouds
7:45 AM 6.8 °F -4.8 °F 3.2 °F 85% 30.13 in 10.0 mi SW 6.9 mph - N/A   Scattered Clouds
8:45 AM 8.6 °F -2.6 °F 5.0 °F 85% 30.12 in 10.0 mi SW 6.9 mph - N/A   Scattered Clouds
9:45 AM 12.2 °F 2.9 °F 8.6 °F 85% 30.12 in 10.0 mi SW 5.8 mph - N/A   Scattered Clouds
10:45 AM 15.8 °F 7.2 °F 8.6 °F 73% 30.11 in 10.0 mi SSW 5.8 mph - N/A   Scattered Clouds
11:45 AM 17.6 °F 9.3 °F 10.4 °F 73% 30.07 in 10.0 mi SW 5.8 mph - N/A   Scattered Clouds
1:45 PM 21.2 °F 13.6 °F 14.0 °F 74% 30.01 in 10.0 mi SSW 5.8 mph - N/A   Mostly Cloudy
2:45 PM 21.2 °F 13.6 °F 12.2 °F 68% 30.00 in 10.0 mi SSW 5.8 mph - N/A   Scattered Clouds
3:45 PM 19.4 °F 10.4 °F 12.2 °F 74% 29.98 in 10.0 mi SSW 6.9 mph - N/A   Scattered Clouds
4:45 PM 15.8 °F 5.1 °F 10.4 °F 79% 29.97 in 10.0 mi SSW 8.1 mph - N/A   Scattered Clouds
6:45 PM 15.8 °F 5.1 °F 10.4 °F 79% 29.95 in 10.0 mi SW 8.1 mph - N/A   Scattered Clouds
8:45 PM 15.8 °F 6.1 °F 10.4 °F 79% 29.95 in 10.0 mi WSW 6.9 mph - N/A   Scattered Clouds
9:55 PM 15.8 °F 4.2 °F 12.2 °F 86% 29.94 in 10.0 mi SW 9.2 mph - N/A   Clear
10:15 PM 17.6 °F 7.3 °F 12.2 °F 79% 29.94 in 10.0 mi WSW 8.1 mph - N/A   Clear
10:35 PM 17.6 °F 8.2 °F 12.2 °F 79% 29.94 in 10.0 mi WSW 6.9 mph - N/A   Clear
10:45 PM 15.8 °F 6.1 °F 12.2 °F 86% 29.94 in 10.0 mi WSW 6.9 mph - N/A   Scattered Clouds
10:55 PM 17.6 °F 9.3 °F 12.2 °F 79% 29.94 in 10.0 mi WSW 5.8 mph - N/A   Clear
11:15 PM 17.6 °F 8.2 °F 12.2 °F 79% 29.92 in 10.0 mi WSW 6.9 mph - N/A   Clear
11:35 PM 17.6 °F 8.2 °F 12.2 °F 79% 29.92 in 10.0 mi WSW 6.9 mph - N/A   Clear
11:55 PM 14.0 °F 2.9 °F 12.2 °F 93% 29.92 in 10.0 mi West 8.1 mph - N/A   Clear